GOES 17 (43226 NORAD) Tracking and Keplerian Element Data

This shows tracking and keplerian element data for the satellite.

Feedback or suggestion? Click here.




ElementValue
Catalog43226
NameGOES 17
Epoch Orbit1679
Epoch Day269.71484375
Epoch Year2022
RAAN284.5755
Inclination0.0721
Eccentricity2.53E-05
Argument of Perigee236.4081
Mean Anonmoly324.5326
Mean Motion1.00271656
Decay Rate1.01E-06
L11 43226U 18022A 22269.71484375 .00000101 00000+0 00000+0 0 9990
L22 43226 0.0721 284.5755 0000253 236.4081 324.5326 1.00271656 16795

Live tracking and technical data element details for GOES 17 (NORAD 43226). GOES 17 can be tracked NOW for your location showing map with azimuth and elevation plus other details from your city location.

Track the satellite on the map from your city or location and see movement details for azimuth, elevation, latitude, longitude, range, height, and movement on the map or in text.







IsCatalogInMostPopularTable: catalog: 43226, numindb: 815
Update: records affected: 1



GetName: 43226 GOES 17

Hit Count: updated at: Fri, 30 Sep 2022 03:19:27 GMT